Content
SEND FEEDBACK

Daily
Averages
Monthly
Summary
United States of America

INARAJAN, GUAM


Home > North America > United States > Guam
Elevation: 280 feet     Latitude: 13 18N     Longitude: 144 44E

WEATHER
 
SELECT A DAY
Number of Records: 350,245;   Date Range: 1/1/95 - 9/30/14
 
SHARE

PRINT THIS DATA

[ ← Previous Day ]
WEATHER ALMANAC - JANUARY 9, 2014
[ Next Day → ]
[ °C ]   °F
Weather ElementAverageHighLow
Temperature78.8 °F84.6 °F (12:58 pm)76.8 °F (10:58 pm)
Dewpoint75.2 °F77 °F (11:33 am)72.9 °F (3:58 am)
Humidity88.7 %100 % (3:28 pm)74 % (12:58 pm)
Barometer29.84 in29.90 in (9:48 pm)29.77 in (2:58 am)
Wind Speed12.8 mph23 mph (9:21 am)
Wind Gust29.9 mph (9:21 am)
Weather ElementAverage
Visibility9 mi
Wind DirectionENE (78.6 °)

Weather ElementTotal
Precipitation0.21 in
Cooling Degree Days15.7 (Base 65)
Growing Degree Days30.7 (Base 50)
Averaged from 70 records on January 9, 2014
WEATHER CONDITIONS BREAKOUT
WIND DIRECTION BREAKOUT
WEATHER BY HOUR - JANUARY 9, 2014
[ °C ]   °F
Local TimeTemperatureDewpointHumidityBarometerVisibilityWind DirectionWind SpeedGust SpeedPrecipitationEventsConditions
1:58 AM77.5 °F73.0 °F86 %29.79 in10.0 miENE (60°)16.1 mphClear
2:58 AM77.9 °F74.5 °F89 %29.77 in10.0 miENE (70°)13.8 mphPartly Cloudy
3:58 AM78.1 °F72.9 °F84 %29.77 in10.0 miEast (80°)15.0 mph24.2 mphMostly Cloudy
4:58 AM77.9 °F73.4 °F86 %29.77 in10.0 miENE (70°)16.1 mphScattered Clouds
5:28 AM78.8 °F73.4 °F83 %29.81 in10.0 miEast (80°)16.1 mphScattered Clouds
5:38 AM78.8 °F73.4 °F83 %29.81 in10.0 miEast (80°)16.1 mph24.2 mphMostly Cloudy
5:53 AM78.8 °F73.4 °F83 %29.82 in10.0 miENE (70°)16.1 mphMostly Cloudy
5:58 AM78.4 °F74.3 °F87 %29.79 in10.0 miEast (80°)16.1 mphMostly Cloudy
6:03 AM78.8 °F75.2 °F89 %29.82 in10.0 miEast (80°)15.0 mphScattered Clouds
6:58 AM78.1 °F74.3 °F88 %29.81 in10.0 miENE (70°)17.3 mphScattered Clouds
7:12 AM77.0 °F73.4 °F89 %29.85 in9.0 miEast (80°)17.3 mph25.3 mphRainLight Rain
7:17 AM77.0 °F73.4 °F89 %29.85 in8.0 miEast (80°)16.1 mph25.3 mphRainLight Rain
7:22 AM77.0 °F73.4 °F89 %29.85 in9.0 miENE (70°)17.3 mph20.7 mphRainLight Rain
7:25 AM77.0 °F75.2 °F94 %29.86 in10.0 miENE (70°)13.8 mph20.7 mphScattered Clouds
7:40 AM77.0 °F73.4 °F89 %29.86 in10.0 miEast (80°)17.3 mph27.6 mphMostly Cloudy
7:58 AM77.5 °F74.8 °F91 %29.84 in10.0 miEast (80°)11.5 mph23.0 mph0.00 inPartly Cloudy
8:58 AM79.7 °F74.3 °F83 %29.86 in10.0 miENE (70°)17.3 mphScattered Clouds
9:08 AM80.6 °F75.2 °F84 %29.88 in10.0 miEast (80°)15.0 mphMostly Cloudy
9:21 AM78.8 °F73.4 °F83 %29.89 in9.0 miENE (70°)23.0 mph29.9 mphLight Drizzle
9:26 AM77.0 °F73.4 °F89 %29.89 in8.0 miENE (70°)13.8 mph28.8 mphLight Drizzle
9:31 AM77.0 °F75.2 °F94 %29.89 in8.0 miEast (80°)11.5 mphLight Drizzle
9:33 AM77.0 °F75.2 °F94 %29.89 in9.0 miENE (70°)12.7 mphMostly Cloudy
9:58 AM80.1 °F74.8 °F84 %29.86 in10.0 miENE (70°)16.1 mph25.3 mph0.00 inPartly Cloudy
10:58 AM81.9 °F73.6 °F76 %29.86 in10.0 miEast (80°)17.3 mph25.3 mphPartly Cloudy
11:23 AM82.4 °F75.2 °F79 %29.88 in10.0 miEast (80°)15.0 mph21.9 mphDrizzle
11:33 AM78.8 °F77.0 °F94 %29.88 in9.0 miEast (90°)13.8 mph24.2 mphLight Drizzle
11:38 AM78.8 °F77.0 °F94 %29.88 in9.0 miEast (80°)11.5 mph19.6 mphLight Drizzle
11:44 AM78.8 °F75.2 °F89 %29.87 in10.0 miEast (80°)11.5 mph19.6 mphScattered Clouds
11:58 AM81.7 °F75.6 °F82 %29.84 in10.0 miEast (80°)13.8 mph0.00 inPartly Cloudy
12:58 PM84.6 °F75.4 °F74 %29.81 in10.0 miEast (90°)13.8 mph21.9 mphScattered Clouds
1:43 PM82.4 °F75.2 °F79 %29.82 in10.0 miEast (80°)15.0 mph21.9 mphMostly Cloudy
1:48 PM82.4 °F75.2 °F79 %29.82 in10.0 miEast (90°)13.8 mph20.7 mphScattered Clouds
1:53 PM84.2 °F75.2 °F74 %29.82 in10.0 miEast (90°)17.3 mph20.7 mphMostly Cloudy
1:58 PM83.5 °F75.0 °F76 %29.79 in10.0 miEast (90°)15.0 mph20.7 mphMostly Cloudy
2:03 PM82.4 °F75.2 °F79 %29.81 in10.0 miEast (90°)13.8 mphMostly Cloudy
2:18 PM82.4 °F75.2 °F79 %29.81 in10.0 miEast (100°)12.7 mph19.6 mphScattered Clouds
2:53 PM80.6 °F75.2 °F84 %29.81 in10.0 miEast (80°)11.5 mph21.9 mphMostly Cloudy
2:56 PM80.6 °F77.0 °F89 %29.81 in8.0 miENE (60°)12.7 mph21.9 mphLight Drizzle
2:58 PM80.6 °F77.0 °F89 %29.78 in7.0 miENE (70°)11.5 mph21.9 mphLight Drizzle
3:03 PM78.8 °F77.0 °F94 %29.81 in3.0 miENE (60°)12.7 mph21.9 mphRainRain
3:12 PM78.8 °F77.0 °F94 %29.81 in10.0 miENE (70°)11.5 mph17.3 mphMostly Cloudy
3:17 PM78.8 °F77.0 °F94 %29.81 in10.0 miENE (70°)16.1 mphMostly Cloudy
3:20 PM78.8 °F77.0 °F94 %29.81 in6.0 miEast (80°)12.7 mph21.9 mphRainLight Rain
3:28 PM77.0 °F77.0 °F100 %29.78 in6.0 miEast (80°)8.1 mphRainLight Rain
3:31 PM77.0 °F77.0 °F100 %29.78 in10.0 miEast (80°)8.1 mphPartly Cloudy
3:40 PM78.8 °F77.0 °F94 %29.78 in10.0 miEast (80°)11.5 mph18.4 mphMostly Cloudy
3:48 PM78.8 °F77.0 °F94 %29.77 in10.0 miEast (80°)10.4 mphScattered Clouds
3:55 PM78.8 °F76.8 °F94 %29.78 in10.0 miENE (70°)13.8 mph0.03 inPartly Cloudy
4:55 PM79.5 °F75.4 °F87 %29.78 in10.0 miEast (90°)13.8 mphScattered Clouds
5:58 PM78.8 °F74.5 °F87 %29.81 in10.0 miENE (70°)12.7 mph18.4 mphScattered Clouds
6:58 PM78.8 °F74.1 °F85 %29.82 in10.0 miEast (80°)11.5 mphPartly Cloudy
7:58 PM78.4 °F74.5 °F88 %29.84 in10.0 miENE (70°)12.7 mphScattered Clouds
8:58 PM78.4 °F74.3 °F87 %29.86 in10.0 miEast (80°)12.7 mphScattered Clouds
9:03 PM78.8 °F75.2 °F89 %29.89 in10.0 miENE (70°)11.5 mphMostly Cloudy
9:48 PM78.8 °F75.2 °F89 %29.90 in10.0 miEast (80°)10.4 mphScattered Clouds
9:58 PM78.4 °F74.7 °F88 %29.87 in10.0 miENE (70°)6.9 mphScattered Clouds
10:16 PM78.8 °F75.2 °F89 %29.90 in10.0 miENE (70°)10.4 mphRainLight Rain
10:26 PM77.0 °F75.2 °F94 %29.90 in10.0 miEast (100°)10.4 mphLight Drizzle
10:27 PM77.0 °F75.2 °F94 %29.90 in10.0 miEast (90°)10.4 mphMostly Cloudy
10:32 PM77.0 °F75.2 °F94 %29.90 in10.0 miEast (80°)6.9 mphMostly Cloudy
10:42 PM78.8 °F77.0 °F94 %29.90 in8.0 miENE (60°)8.1 mphRainLight Rain
10:47 PM77.0 °F77.0 °F100 %29.90 in4.0 miEast (90°)12.7 mphRainHeavy Rain
10:52 PM77.0 °F77.0 °F100 %29.90 in2.0 miEast (90°)9.2 mph19.6 mphRainHeavy Rain
10:57 PM77.0 °F75.2 °F94 %29.90 in2.0 miEast (100°)8.1 mph19.6 mphRainRain
10:58 PM76.8 °F75.9 °F97 %29.87 in2.0 miEast (90°)8.1 mph19.6 mph0.17 inRainRain
11:03 PM77.0 °F75.2 °F94 %29.90 in6.0 miEast (80°)6.9 mphRainLight Rain
11:13 PM77.0 °F75.2 °F94 %29.89 in10.0 miEast (80°)5.8 mphRainLight Rain
11:15 PM77.0 °F75.2 °F94 %29.89 in10.0 miEast (80°)6.9 mphOvercast
11:40 PM77.0 °F75.2 °F94 %29.89 in10.0 miEast (90°)8.1 mphScattered Clouds
11:58 PM77.5 °F74.8 °F91 %29.86 in10.0 miEast (80°)9.2 mph0.01 inPartly Cloudy
Hourly data recorded from PGUA, located miles away from Inarajan, Guam







STORIES FROM OUR PARTNERS